Language: 


Des rapports , des résumés tant et plus, au choix de chacun....


Données statistiques de la station
Quotidien Rapport Mars 7, 2017 Unités:  Métrique    Anglais   les deux
« Précédent Jour
Suivant Jour »
Quotidien Hebdomadaire Mensuel Annuel Actuel
  Haut: Bas: Moyen:
Température: 12.3 °C 2.6 °C 6.7 °C
Pt de rosée: 7.7 °C 1.3 °C 4.1 °C
Humidité: 98 % 60 % 85 %
Vitesse du vent: 16.6 km/h 0.0 km/h 4.8 km/h
Rafales: 20.9 km/h - -
Vent:- - West
Pression: 1019.9 hPa 1010.0 hPa -
Précipitation: 0.0 mm    
Historical Graphs
 
 
Données statistiques pour Mars 7, 2017
Heure Température Point de rosée Pression Vent Vitesse du vent Refales Humidité Pluie (taux horaire)
00:00 6.3 °C 4.8 °C 1010.0 hPa Calm     90 % 0.0 mm
00:05 6.3 °C 4.8 °C 1010.0 hPa Calm     90 % 0.0 mm
00:06 6.3 °C 4.8 °C 1010.0 hPa Calm     90 % 0.0 mm
00:11 6.2 °C 4.7 °C 1010.0 hPa WSW 3.2 km/h 4.0 km/h 90 % 0.0 mm
00:16 6.1 °C 4.7 °C 1010.0 hPa Calm   4.0 km/h 91 % 0.0 mm
00:20 6.0 °C 4.6 °C 1010.0 hPa Calm   3.2 km/h 91 % 0.0 mm
00:22 6.0 °C 4.6 °C 1010.0 hPa Calm     91 % 0.0 mm
00:27 6.0 °C 4.6 °C 1010.0 hPa Calm     91 % 0.0 mm
00:32 5.9 °C 4.5 °C 1010.0 hPa Calm     91 % 0.0 mm
00:37 5.9 °C 4.7 °C 1010.0 hPa Calm     92 % 0.0 mm
00:42 5.8 °C 4.6 °C 1011.1 hPa Calm     92 % 0.0 mm
00:47 5.8 °C 4.7 °C 1011.1 hPa Calm     93 % 0.0 mm
00:52 5.7 °C 4.7 °C 1011.1 hPa Calm     93 % 0.0 mm
00:57 5.7 °C 4.7 °C 1011.1 hPa WSW 4.0 km/h 5.8 km/h 93 % 0.0 mm
01:02 5.7 °C 4.7 °C 1011.1 hPa WSW 5.8 km/h 6.9 km/h 93 % 0.0 mm
01:07 5.7 °C 4.7 °C 1010.0 hPa WSW 7.6 km/h 7.9 km/h 93 % 0.0 mm
01:12 5.7 °C 4.7 °C 1010.0 hPa WSW 7.9 km/h 7.9 km/h 93 % 0.0 mm
01:17 5.8 °C 4.7 °C 1010.0 hPa West 6.9 km/h 9.3 km/h 93 % 0.0 mm
01:22 5.8 °C 4.7 °C 1011.1 hPa West 6.9 km/h 9.3 km/h 93 % 0.0 mm
01:25 5.8 °C 4.7 °C 1011.1 hPa WSW 5.5 km/h 8.7 km/h 93 % 0.0 mm
01:29 5.8 °C 4.7 °C 1011.1 hPa West 5.5 km/h 7.9 km/h 93 % 0.0 mm
01:30 5.8 °C 4.7 °C 1011.1 hPa West 7.6 km/h 8.7 km/h 93 % 0.0 mm
01:31 5.8 °C 4.7 °C 1011.1 hPa West 9.3 km/h 9.3 km/h 93 % 0.0 mm
01:36 5.8 °C 4.9 °C 1011.1 hPa West 6.9 km/h 9.3 km/h 94 % 0.0 mm
01:41 5.8 °C 4.9 °C 1011.1 hPa Calm   9.0 km/h 94 % 0.0 mm
01:46 5.8 °C 4.9 °C 1011.1 hPa WSW 5.8 km/h 9.3 km/h 94 % 0.0 mm
01:51 5.8 °C 4.9 °C 1011.1 hPa West 4.0 km/h 9.3 km/h 94 % 0.0 mm
01:52 5.8 °C 4.9 °C 1011.1 hPa West 6.1 km/h 9.3 km/h 94 % 0.0 mm
01:57 5.8 °C 4.7 °C 1011.1 hPa West 6.9 km/h 7.9 km/h 93 % 0.0 mm
02:01 5.8 °C 4.7 °C 1011.1 hPa West 4.3 km/h 7.9 km/h 93 % 0.0 mm
02:02 5.7 °C 4.7 °C 1011.1 hPa West 4.7 km/h 7.9 km/h 93 % 0.0 mm
02:07 5.7 °C 4.7 °C 1011.1 hPa West 5.8 km/h 9.3 km/h 93 % 0.0 mm
02:12 5.7 °C 4.7 °C 1011.1 hPa West 4.7 km/h 9.3 km/h 93 % 0.0 mm
02:17 5.7 °C 4.7 °C 1011.1 hPa WSW 6.1 km/h 8.7 km/h 93 % 0.0 mm
02:22 5.7 °C 4.7 °C 1011.1 hPa West 6.1 km/h 9.0 km/h 93 % 0.0 mm
02:27 5.7 °C 4.7 °C 1011.1 hPa West 4.7 km/h 9.0 km/h 93 % 0.0 mm
02:32 5.7 °C 4.7 °C 1011.1 hPa West 9.0 km/h 9.0 km/h 93 % 0.0 mm
02:37 5.7 °C 4.7 °C 1010.0 hPa West 4.7 km/h 9.3 km/h 93 % 0.0 mm
02:42 5.7 °C 4.7 °C 1010.0 hPa West 11.6 km/h 13.0 km/h 93 % 0.0 mm
02:47 5.7 °C 4.7 °C 1010.0 hPa WNW 9.0 km/h 13.0 km/h 93 % 0.0 mm
02:52 5.7 °C 4.7 °C 1011.1 hPa West 2.1 km/h 12.2 km/h 93 % 0.0 mm
02:57 5.6 °C 4.6 °C 1011.1 hPa West 5.0 km/h 11.9 km/h 93 % 0.0 mm
03:02 5.6 °C 4.6 °C 1011.1 hPa WSW 7.9 km/h 12.2 km/h 93 % 0.0 mm
03:07 5.6 °C 4.6 °C 1010.0 hPa West 10.5 km/h 10.5 km/h 93 % 0.0 mm
03:12 5.5 °C 4.4 °C 1010.0 hPa West 7.9 km/h 11.6 km/h 93 % 0.0 mm
03:17 5.4 °C 4.3 °C 1010.0 hPa West 6.4 km/h 11.6 km/h 93 % 0.0 mm
03:22 5.3 °C 4.3 °C 1011.1 hPa West 6.9 km/h 9.7 km/h 93 % 0.0 mm
03:27 5.0 °C 3.9 °C 1011.1 hPa WSW 10.1 km/h 10.1 km/h 93 % 0.0 mm
03:32 5.0 °C 3.9 °C 1011.1 hPa WNW 9.7 km/h 10.1 km/h 93 % 0.0 mm
03:37 4.9 °C 3.9 °C 1011.1 hPa West 5.8 km/h 10.5 km/h 93 % 0.0 mm
03:42 4.7 °C 3.8 °C 1011.1 hPa WSW 6.4 km/h 10.5 km/h 94 % 0.0 mm
03:47 4.6 °C 3.6 °C 1011.1 hPa West 7.2 km/h 9.3 km/h 93 % 0.0 mm
03:52 4.5 °C 3.6 °C 1011.1 hPa WSW 5.0 km/h 9.0 km/h 94 % 0.0 mm
03:57 4.3 °C 3.3 °C 1011.1 hPa WSW 6.1 km/h 11.6 km/h 93 % 0.0 mm
04:02 4.2 °C 3.3 °C 1011.1 hPa WSW 10.5 km/h 11.6 km/h 94 % 0.0 mm
04:07 4.2 °C 3.3 °C 1011.1 hPa West 8.7 km/h 11.1 km/h 94 % 0.0 mm
04:12 4.2 °C 3.3 °C 1011.1 hPa West 10.1 km/h 12.6 km/h 94 % 0.0 mm
04:17 4.2 °C 3.5 °C 1011.1 hPa West 10.1 km/h 12.6 km/h 95 % 0.0 mm
04:22 4.1 °C 3.4 °C 1011.1 hPa West 10.5 km/h 12.2 km/h 95 % 0.0 mm
04:27 4.1 °C 3.6 °C 1011.1 hPa WSW 8.7 km/h 12.2 km/h 96 % 0.0 mm
04:32 4.0 °C 3.4 °C 1011.1 hPa WSW 6.9 km/h 11.6 km/h 96 % 0.0 mm
04:37 3.9 °C 3.3 °C 1011.1 hPa WSW 9.3 km/h 10.5 km/h 96 % 0.0 mm
04:43 3.9 °C 3.3 °C 1011.1 hPa West 6.4 km/h 10.5 km/h 96 % 0.0 mm
04:48 3.7 °C 3.2 °C 1011.1 hPa West 5.8 km/h 10.1 km/h 96 % 0.0 mm
04:53 3.6 °C 3.1 °C 1011.1 hPa West 4.7 km/h 7.6 km/h 96 % 0.0 mm
04:58 3.6 °C 2.9 °C 1011.1 hPa Calm   6.9 km/h 96 % 0.0 mm
05:03 3.6 °C 2.9 °C 1011.1 hPa West 5.8 km/h 6.9 km/h 96 % 0.0 mm
05:08 3.6 °C 3.1 °C 1012.1 hPa West 5.8 km/h 8.7 km/h 97 % 0.0 mm
05:13 3.6 °C 3.1 °C 1012.1 hPa West 6.1 km/h 9.3 km/h 97 % 0.0 mm
05:18 3.4 °C 3.0 °C 1012.1 hPa WSW 7.2 km/h 9.3 km/h 97 % 0.0 mm
05:23 3.4 °C 3.0 °C 1012.1 hPa West 8.7 km/h 10.5 km/h 97 % 0.0 mm
05:28 3.4 °C 3.0 °C 1012.1 hPa West 7.9 km/h 10.5 km/h 97 % 0.0 mm
05:33 3.4 °C 3.0 °C 1012.1 hPa West 7.9 km/h 11.9 km/h 97 % 0.0 mm
05:38 3.4 °C 3.0 °C 1013.1 hPa WSW 1.8 km/h 11.9 km/h 97 % 0.0 mm
05:43 3.3 °C 2.9 °C 1013.1 hPa West 6.4 km/h 9.3 km/h 97 % 0.0 mm
05:48 3.3 °C 2.9 °C 1013.1 hPa Calm   8.7 km/h 97 % 0.0 mm
05:53 3.3 °C 2.9 °C 1013.1 hPa Calm   6.4 km/h 97 % 0.0 mm
06:03 3.3 °C 3.1 °C 1013.1 hPa Calm   6.1 km/h 98 % 0.0 mm
06:08 3.2 °C 2.9 °C 1013.1 hPa WSW 4.0 km/h 5.0 km/h 98 % 0.0 mm
06:13 3.1 °C 2.7 °C 1013.1 hPa West 4.7 km/h 5.0 km/h 97 % 0.0 mm
06:18 3.2 °C 2.9 °C 1013.1 hPa WNW 5.0 km/h 6.1 km/h 98 % 0.0 mm
06:23 3.3 °C 3.1 °C 1013.1 hPa West 6.1 km/h 9.0 km/h 98 % 0.0 mm
06:28 3.6 °C 3.2 °C 1013.1 hPa West 7.6 km/h 9.0 km/h 98 % 0.0 mm
06:33 3.6 °C 3.2 °C 1013.1 hPa West 9.7 km/h 9.7 km/h 98 % 0.0 mm
06:38 3.6 °C 3.2 °C 1013.1 hPa WSW 6.9 km/h 10.5 km/h 98 % 0.0 mm
06:43 3.6 °C 3.2 °C 1013.1 hPa WSW 11.9 km/h 14.3 km/h 98 % 0.0 mm
06:48 3.6 °C 3.2 °C 1013.1 hPa Calm   14.3 km/h 98 % 0.0 mm
06:53 3.4 °C 3.2 °C 1013.1 hPa Calm   12.2 km/h 98 % 0.0 mm
06:58 3.2 °C 2.9 °C 1013.1 hPa West 6.4 km/h 8.7 km/h 98 % 0.0 mm
07:03 3.1 °C 2.8 °C 1013.1 hPa West 5.0 km/h 8.7 km/h 98 % 0.0 mm
07:08 3.2 °C 2.9 °C 1013.1 hPa West 6.4 km/h 9.3 km/h 98 % 0.0 mm
07:13 3.1 °C 2.8 °C 1013.1 hPa West 6.1 km/h 9.3 km/h 98 % 0.0 mm
07:18 3.1 °C 2.8 °C 1013.1 hPa West 5.5 km/h 6.9 km/h 98 % 0.0 mm
07:23 2.9 °C 2.7 °C 1014.1 hPa WSW 5.8 km/h 6.9 km/h 98 % 0.0 mm
07:28 2.7 °C 2.4 °C 1014.1 hPa WSW 4.3 km/h 6.9 km/h 98 % 0.0 mm
07:33 2.7 °C 2.4 °C 1014.1 hPa WSW 5.8 km/h 6.9 km/h 98 % 0.0 mm
07:38 2.7 °C 2.4 °C 1014.1 hPa WSW 6.9 km/h 7.6 km/h 98 % 0.0 mm
07:43 2.6 °C 2.3 °C 1014.1 hPa WSW 9.0 km/h 9.0 km/h 98 % 0.0 mm
07:48 2.6 °C 2.3 °C 1014.1 hPa West 6.4 km/h 9.0 km/h 98 % 0.0 mm
07:53 2.7 °C 2.4 °C 1014.1 hPa West 7.9 km/h 10.1 km/h 98 % 0.0 mm
07:58 2.7 °C 2.4 °C 1014.1 hPa West 10.5 km/h 11.9 km/h 98 % 0.0 mm
08:03 2.9 °C 2.7 °C 1014.1 hPa WSW 9.3 km/h 12.2 km/h 98 % 0.0 mm
08:08 3.1 °C 2.8 °C 1015.1 hPa WSW 8.7 km/h 12.2 km/h 98 % 0.0 mm
08:13 3.1 °C 2.8 °C 1015.1 hPa WSW 6.1 km/h 10.5 km/h 98 % 0.0 mm
08:18 3.3 °C 3.1 °C 1015.1 hPa WSW 6.1 km/h 10.5 km/h 98 % 0.0 mm
08:23 3.6 °C 3.2 °C 1015.1 hPa WSW 8.7 km/h 8.7 km/h 98 % 0.0 mm
08:28 3.7 °C 3.4 °C 1015.1 hPa West 5.8 km/h 10.1 km/h 98 % 0.0 mm
08:33 3.9 °C 3.6 °C 1015.1 hPa Calm   10.1 km/h 98 % 0.0 mm
08:38 4.2 °C 3.9 °C 1015.1 hPa Calm   6.4 km/h 98 % 0.0 mm
08:43 4.5 °C 4.2 °C 1015.1 hPa WSW 9.3 km/h 9.3 km/h 98 % 0.0 mm
08:48 4.7 °C 4.4 °C 1015.1 hPa WSW 7.6 km/h 9.7 km/h 98 % 0.0 mm
08:53 4.9 °C 4.6 °C 1015.1 hPa WSW 5.0 km/h 9.7 km/h 98 % 0.0 mm
08:58 5.2 °C 4.9 °C 1015.1 hPa West 6.9 km/h 9.7 km/h 98 % 0.0 mm
08:59 5.3 °C 5.0 °C 1015.1 hPa West 5.5 km/h 9.7 km/h 98 % 0.0 mm
09:04 5.7 °C 5.4 °C 1015.1 hPa NW 5.0 km/h 10.1 km/h 98 % 0.0 mm
09:09 5.9 °C 5.6 °C 1015.1 hPa West 5.0 km/h 12.6 km/h 98 % 0.0 mm
09:14 6.3 °C 6.0 °C 1015.1 hPa West 8.7 km/h 14.0 km/h 98 % 0.0 mm
09:19 6.4 °C 6.2 °C 1015.1 hPa WSW 9.0 km/h 17.2 km/h 98 % 0.0 mm
09:24 6.6 °C 6.3 °C 1015.1 hPa West 12.6 km/h 17.2 km/h 98 % 0.0 mm
09:29 6.8 °C 6.6 °C 1015.1 hPa WSW 12.2 km/h 17.7 km/h 98 % 0.0 mm
09:34 7.2 °C 6.8 °C 1015.1 hPa WSW 12.2 km/h 20.1 km/h 98 % 0.0 mm
09:39 7.3 °C 6.8 °C 1015.1 hPa WSW 14.0 km/h 20.1 km/h 97 % 0.0 mm
09:44 7.6 °C 7.1 °C 1015.1 hPa West 11.9 km/h 16.9 km/h 97 % 0.0 mm
09:49 7.9 °C 7.5 °C 1015.1 hPa West 13.0 km/h 16.9 km/h 97 % 0.0 mm
09:54 8.2 °C 7.6 °C 1015.1 hPa WSW 5.8 km/h 14.0 km/h 96 % 0.0 mm
09:59 8.3 °C 7.7 °C 1015.1 hPa WNW 8.7 km/h 16.9 km/h 96 % 0.0 mm
10:04 8.5 °C 7.6 °C 1015.1 hPa West 16.6 km/h 18.0 km/h 94 % 0.0 mm
10:09 8.7 °C 7.7 °C 1015.1 hPa WNW 5.8 km/h 18.0 km/h 93 % 0.0 mm
10:14 8.7 °C 7.3 °C 1015.1 hPa WNW 9.7 km/h 16.6 km/h 91 % 0.0 mm
10:19 8.9 °C 7.2 °C 1015.1 hPa WSW 11.9 km/h 14.0 km/h 89 % 0.0 mm
10:24 9.1 °C 7.1 °C 1015.1 hPa West 6.1 km/h 16.3 km/h 87 % 0.0 mm
10:29 9.1 °C 6.7 °C 1015.1 hPa NNW 9.0 km/h 16.3 km/h 85 % 0.0 mm
10:34 9.5 °C 7.1 °C 1015.1 hPa WNW 9.7 km/h 14.3 km/h 85 % 0.0 mm
10:39 9.6 °C 7.1 °C 1016.1 hPa West 9.0 km/h 11.9 km/h 84 % 0.0 mm
10:44 9.6 °C 6.7 °C 1016.1 hPa NNW 10.5 km/h 16.6 km/h 82 % 0.0 mm
10:49 9.7 °C 6.6 °C 1016.1 hPa NNW 4.7 km/h 16.6 km/h 81 % 0.0 mm
10:54 9.9 °C 6.8 °C 1015.1 hPa West 4.7 km/h 14.0 km/h 81 % 0.0 mm
10:59 9.7 °C 6.6 °C 1015.1 hPa WNW 5.0 km/h 14.3 km/h 81 % 0.0 mm
11:04 9.9 °C 6.4 °C 1015.1 hPa North 5.5 km/h 14.3 km/h 79 % 0.0 mm
11:09 9.7 °C 6.1 °C 1016.1 hPa NNW 10.5 km/h 14.8 km/h 78 % 0.0 mm
11:14 10.2 °C 6.7 °C 1016.1 hPa West 9.0 km/h 14.8 km/h 79 % 0.0 mm
11:19 10.2 °C 6.5 °C 1016.1 hPa Calm   13.7 km/h 78 % 0.0 mm
11:24 10.2 °C 5.9 °C 1016.1 hPa West 4.0 km/h 13.7 km/h 75 % 0.0 mm
11:30 10.2 °C 6.3 °C 1016.1 hPa WNW 2.1 km/h 10.5 km/h 77 % 0.0 mm
11:35 10.1 °C 5.7 °C 1016.1 hPa North 12.2 km/h 12.2 km/h 74 % 0.0 mm
11:40 10.1 °C 5.7 °C 1015.1 hPa WNW 7.9 km/h 12.2 km/h 74 % 0.0 mm
11:45 10.3 °C 5.8 °C 1015.1 hPa NNW 7.6 km/h 11.9 km/h 74 % 0.0 mm
11:50 10.7 °C 6.2 °C 1015.1 hPa WSW 2.1 km/h 10.5 km/h 74 % 0.0 mm
11:55 10.7 °C 5.6 °C 1016.1 hPa NNW 8.7 km/h 13.0 km/h 71 % 0.0 mm
12:00 11.0 °C 6.1 °C 1016.1 hPa Calm   15.4 km/h 72 % 0.0 mm
12:05 11.2 °C 6.1 °C 1016.1 hPa North 4.7 km/h 17.2 km/h 71 % 0.0 mm
12:10 10.4 °C 4.7 °C 1016.1 hPa NNW 7.9 km/h 17.2 km/h 68 % 0.0 mm
12:15 10.5 °C 5.1 °C 1016.1 hPa NW 4.7 km/h 14.0 km/h 69 % 0.0 mm
12:20 11.0 °C 5.5 °C 1016.1 hPa West 6.9 km/h 11.9 km/h 69 % 0.0 mm
12:25 10.8 °C 5.3 °C 1016.8 hPa West 1.4 km/h 11.9 km/h 69 % 0.0 mm
12:29 11.4 °C 6.2 °C 1016.8 hPa West 11.9 km/h 16.9 km/h 70 % 0.0 mm
12:35 11.9 °C 6.4 °C 1016.8 hPa West 11.9 km/h 16.9 km/h 69 % 0.0 mm
12:40 11.8 °C 6.1 °C 1016.8 hPa West 5.0 km/h 15.1 km/h 68 % 0.0 mm
12:44 11.6 °C 5.4 °C 1016.8 hPa WNW 9.3 km/h 15.4 km/h 66 % 0.0 mm
12:50 10.6 °C 4.1 °C 1016.8 hPa NE 11.9 km/h 15.4 km/h 64 % 0.0 mm
12:55 10.2 °C 3.9 °C 1016.8 hPa WNW 11.9 km/h 14.8 km/h 65 % 0.0 mm
12:59 10.6 °C 4.7 °C 1016.8 hPa West 3.2 km/h 14.8 km/h 67 % 0.0 mm
13:04 10.6 °C 4.9 °C 1016.8 hPa West 9.3 km/h 17.2 km/h 68 % 0.0 mm
13:09 10.7 °C 5.0 °C 1016.1 hPa WSW 7.9 km/h 20.9 km/h 68 % 0.0 mm
13:14 11.4 °C 5.9 °C 1016.1 hPa West 16.3 km/h 20.9 km/h 69 % 0.0 mm
13:19 10.7 °C 4.6 °C 1016.1 hPa West 10.5 km/h 19.8 km/h 66 % 0.0 mm
13:24 10.5 °C 4.4 °C 1016.8 hPa West 5.5 km/h 18.0 km/h 66 % 0.0 mm
13:29 10.4 °C 4.5 °C 1016.8 hPa West 10.1 km/h 16.6 km/h 67 % 0.0 mm
13:34 11.4 °C 5.4 °C 1016.8 hPa SSW 11.9 km/h 16.6 km/h 67 % 0.0 mm
13:39 11.4 °C 5.0 °C 1016.1 hPa NW 6.1 km/h 14.0 km/h 65 % 0.0 mm
13:44 10.7 °C 4.2 °C 1016.1 hPa SSW 7.2 km/h 14.0 km/h 64 % 0.0 mm
13:49 11.2 °C 4.8 °C 1016.1 hPa West 4.3 km/h 14.0 km/h 65 % 0.0 mm
13:54 10.6 °C 3.8 °C 1016.8 hPa Calm   14.0 km/h 63 % 0.0 mm
13:59 11.2 °C 4.2 °C 1016.8 hPa Calm   14.3 km/h 62 % 0.0 mm
14:04 11.8 °C 4.8 °C 1016.8 hPa West 4.7 km/h 16.6 km/h 62 % 0.0 mm
14:09 12.3 °C 5.3 °C 1016.8 hPa NW 9.0 km/h 16.6 km/h 62 % 0.0 mm
14:14 11.3 °C 3.8 °C 1016.8 hPa WNW 4.3 km/h 15.8 km/h 60 % 0.0 mm
14:19 10.7 °C 3.4 °C 1016.8 hPa West 5.5 km/h 15.8 km/h 61 % 0.0 mm
14:24 10.6 °C 3.6 °C 1016.8 hPa West 9.3 km/h 12.6 km/h 62 % 0.0 mm
14:29 11.1 °C 4.3 °C 1016.8 hPa WNW 5.8 km/h 12.2 km/h 63 % 0.0 mm
14:34 10.8 °C 3.8 °C 1016.8 hPa WSW 3.5 km/h 12.2 km/h 62 % 0.0 mm
14:39 10.5 °C 3.7 °C 1016.8 hPa NNW 1.8 km/h 12.2 km/h 63 % 0.0 mm
14:40 10.6 °C 3.8 °C 1016.8 hPa WNW 4.3 km/h 9.3 km/h 63 % 0.0 mm
14:45 10.3 °C 3.6 °C 1016.8 hPa NNW 6.9 km/h 13.7 km/h 63 % 0.0 mm
14:50 10.2 °C 3.7 °C 1016.8 hPa Calm   13.7 km/h 64 % 0.0 mm
14:55 10.5 °C 4.2 °C 1016.1 hPa WSW 6.1 km/h 9.0 km/h 65 % 0.0 mm
15:00 11.0 °C 4.7 °C 1016.1 hPa West 8.7 km/h 12.6 km/h 65 % 0.0 mm
15:05 11.4 °C 5.1 °C 1016.1 hPa West 9.3 km/h 13.7 km/h 65 % 0.0 mm
15:10 11.0 °C 4.4 °C 1016.8 hPa West 9.7 km/h 13.7 km/h 64 % 0.0 mm
15:15 10.5 °C 3.9 °C 1016.8 hPa West 6.9 km/h 15.1 km/h 64 % 0.0 mm
15:20 10.3 °C 4.2 °C 1016.8 hPa West 12.2 km/h 15.1 km/h 66 % 0.0 mm
15:21 10.3 °C 4.2 °C 1016.8 hPa West 6.1 km/h 15.1 km/h 66 % 0.0 mm
15:26 10.2 °C 4.1 °C 1018.2 hPa WNW 5.5 km/h 14.0 km/h 66 % 0.0 mm
15:31 10.1 °C 4.0 °C 1018.2 hPa Calm   10.5 km/h 66 % 0.0 mm
15:36 10.1 °C 4.2 °C 1018.2 hPa NW 4.0 km/h 9.7 km/h 67 % 0.0 mm
15:41 10.0 °C 4.2 °C 1018.2 hPa North 4.0 km/h 10.5 km/h 67 % 0.0 mm
15:46 9.9 °C 4.3 °C 1018.2 hPa Calm   10.5 km/h 68 % 0.0 mm
15:51 10.0 °C 4.3 °C 1018.2 hPa NNW 7.6 km/h 9.0 km/h 68 % 0.0 mm
15:56 10.2 °C 4.6 °C 1016.8 hPa WNW 8.7 km/h 11.6 km/h 68 % 0.0 mm
16:01 10.3 °C 4.6 °C 1016.8 hPa NW 2.6 km/h 11.6 km/h 68 % 0.0 mm
16:06 10.2 °C 4.3 °C 1016.8 hPa North 10.1 km/h 12.6 km/h 67 % 0.0 mm
16:11 10.1 °C 4.2 °C 1016.8 hPa West 6.9 km/h 12.6 km/h 67 % 0.0 mm
16:16 9.9 °C 4.1 °C 1016.8 hPa Calm   10.1 km/h 67 % 0.0 mm
16:21 9.9 °C 4.1 °C 1016.8 hPa WNW 7.9 km/h 12.6 km/h 67 % 0.0 mm
16:26 9.8 °C 3.9 °C 1016.8 hPa West 3.2 km/h 12.6 km/h 67 % 0.0 mm
16:31 9.7 °C 3.9 °C 1016.8 hPa West 6.9 km/h 11.9 km/h 67 % 0.0 mm
16:36 9.6 °C 3.8 °C 1016.8 hPa West 4.3 km/h 11.9 km/h 67 % 0.0 mm
16:41 9.6 °C 4.0 °C 1016.8 hPa Calm   6.9 km/h 68 % 0.0 mm
16:46 9.5 °C 3.9 °C 1016.8 hPa Calm   7.9 km/h 68 % 0.0 mm
16:51 9.5 °C 4.1 °C 1016.8 hPa North 2.1 km/h 9.0 km/h 69 % 0.0 mm
16:56 9.6 °C 4.0 °C 1016.1 hPa Calm   9.0 km/h 68 % 0.0 mm
16:58 9.6 °C 4.2 °C 1016.1 hPa Calm   9.0 km/h 69 % 0.0 mm
17:03 9.6 °C 4.2 °C 1016.1 hPa Calm   4.0 km/h 69 % 0.0 mm
17:08 9.6 °C 4.2 °C 1016.8 hPa Calm   5.8 km/h 69 % 0.0 mm
17:13 9.7 °C 4.3 °C 1016.8 hPa Calm   5.8 km/h 69 % 0.0 mm
17:18 9.9 °C 4.4 °C 1016.8 hPa Calm   6.9 km/h 69 % 0.0 mm
17:23 9.9 °C 4.4 °C 1016.8 hPa Calm   6.9 km/h 69 % 0.0 mm
17:28 9.7 °C 4.3 °C 1016.8 hPa Calm   9.3 km/h 69 % 0.0 mm
17:33 9.5 °C 4.1 °C 1016.8 hPa Calm   9.3 km/h 69 % 0.0 mm
17:38 9.4 °C 4.2 °C 1016.8 hPa Calm   1.4 km/h 70 % 0.0 mm
17:43 9.3 °C 4.1 °C 1016.8 hPa Calm   1.4 km/h 70 % 0.0 mm
17:48 9.2 °C 4.0 °C 1016.8 hPa West 6.1 km/h 6.9 km/h 70 % 0.0 mm
17:53 9.1 °C 4.1 °C 1016.1 hPa Calm   6.9 km/h 71 % 0.0 mm
17:54 9.1 °C 4.1 °C 1016.1 hPa Calm   6.9 km/h 71 % 0.0 mm
17:59 8.9 °C 4.2 °C 1016.1 hPa WSW 1.4 km/h 6.9 km/h 72 % 0.0 mm
18:04 8.9 °C 4.3 °C 1016.1 hPa Calm   4.0 km/h 73 % 0.0 mm
18:09 8.8 °C 4.2 °C 1016.8 hPa West 3.2 km/h 4.0 km/h 73 % 0.0 mm
18:14 8.7 °C 4.3 °C 1016.8 hPa Calm   3.2 km/h 74 % 0.0 mm
18:19 8.6 °C 4.4 °C 1016.8 hPa Calm     75 % 0.0 mm
18:24 8.5 °C 4.3 °C 1018.2 hPa Calm     75 % 0.0 mm
18:29 8.4 °C 4.2 °C 1018.2 hPa Calm   5.5 km/h 75 % 0.0 mm
18:34 8.3 °C 4.3 °C 1018.2 hPa Calm   5.5 km/h 76 % 0.0 mm
18:39 8.3 °C 4.3 °C 1018.2 hPa Calm     76 % 0.0 mm
18:44 8.2 °C 4.4 °C 1018.2 hPa Calm     77 % 0.0 mm
18:49 8.2 °C 4.4 °C 1018.2 hPa Calm   5.5 km/h 77 % 0.0 mm
18:54 8.1 °C 4.5 °C 1018.2 hPa Calm   5.5 km/h 78 % 0.0 mm
18:59 8.1 °C 4.4 °C 1018.2 hPa Calm     78 % 0.0 mm
19:04 7.9 °C 4.3 °C 1018.2 hPa Calm     78 % 0.0 mm
19:09 7.8 °C 4.4 °C 1018.8 hPa Calm     79 % 0.0 mm
19:11 7.8 °C 4.4 °C 1018.8 hPa Calm     79 % 0.0 mm
19:16 7.7 °C 4.4 °C 1018.8 hPa Calm     80 % 0.0 mm
19:21 7.6 °C 4.3 °C 1018.8 hPa Calm   4.0 km/h 80 % 0.0 mm
19:26 7.6 °C 4.5 °C 1018.8 hPa WSW 8.7 km/h 12.2 km/h 81 % 0.0 mm
19:31 7.7 °C 4.8 °C 1018.8 hPa WSW 6.9 km/h 12.2 km/h 82 % 0.0 mm
19:36 7.6 °C 4.7 °C 1018.8 hPa West 9.0 km/h 10.1 km/h 82 % 0.0 mm
19:41 7.4 °C 4.6 °C 1018.8 hPa West 6.9 km/h 10.5 km/h 82 % 0.0 mm
19:46 7.3 °C 4.4 °C 1018.8 hPa West 8.7 km/h 10.5 km/h 82 % 0.0 mm
19:51 7.2 °C 4.3 °C 1018.8 hPa West 7.9 km/h 10.5 km/h 82 % 0.0 mm
19:56 6.9 °C 4.1 °C 1018.8 hPa Calm   9.7 km/h 82 % 0.0 mm
20:01 6.8 °C 4.1 °C 1018.8 hPa West 5.5 km/h 9.0 km/h 83 % 0.0 mm
20:06 6.4 °C 3.6 °C 1018.8 hPa WSW 5.0 km/h 8.7 km/h 82 % 0.0 mm
20:11 6.3 °C 3.4 °C 1018.8 hPa Calm   6.4 km/h 82 % 0.0 mm
20:16 6.0 °C 3.3 °C 1018.8 hPa Calm   6.1 km/h 83 % 0.0 mm
20:21 5.7 °C 3.0 °C 1018.8 hPa Calm     83 % 0.0 mm
20:22 5.6 °C 2.9 °C 1018.8 hPa Calm     83 % 0.0 mm
20:27 5.4 °C 2.7 °C 1018.8 hPa Calm     83 % 0.0 mm
20:32 5.2 °C 2.7 °C 1018.8 hPa Calm     84 % 0.0 mm
20:37 4.9 °C 2.4 °C 1019.9 hPa Calm     84 % 0.0 mm
20:42 4.7 °C 2.4 °C 1019.9 hPa Calm     85 % 0.0 mm
20:47 4.6 °C 2.3 °C 1019.9 hPa Calm     85 % 0.0 mm
20:52 4.3 °C 2.0 °C 1018.8 hPa Calm     85 % 0.0 mm
20:57 4.1 °C 2.0 °C 1018.8 hPa Calm     86 % 0.0 mm
21:02 4.2 °C 2.1 °C 1018.8 hPa Calm   4.0 km/h 86 % 0.0 mm
21:07 4.2 °C 2.2 °C 1018.8 hPa WSW 3.5 km/h 4.0 km/h 87 % 0.0 mm
21:12 4.2 °C 2.2 °C 1018.8 hPa Calm   3.5 km/h 87 % 0.0 mm
21:17 4.0 °C 2.1 °C 1018.8 hPa Calm   3.5 km/h 87 % 0.0 mm
21:22 4.0 °C 2.2 °C 1018.8 hPa Calm   3.5 km/h 88 % 0.0 mm
21:27 4.0 °C 2.2 °C 1018.8 hPa Calm     88 % 0.0 mm
21:32 3.9 °C 2.1 °C 1018.8 hPa Calm     88 % 0.0 mm
21:37 3.8 °C 2.2 °C 1018.8 hPa Calm     89 % 0.0 mm
21:42 3.8 °C 2.2 °C 1018.8 hPa Calm     89 % 0.0 mm
21:47 3.8 °C 2.2 °C 1018.8 hPa WSW 5.5 km/h 5.8 km/h 89 % 0.0 mm
21:53 3.7 °C 2.1 °C 1018.8 hPa WSW 4.7 km/h 6.4 km/h 89 % 0.0 mm
21:58 3.6 °C 2.1 °C 1018.8 hPa Calm   6.4 km/h 90 % 0.0 mm
22:03 3.6 °C 2.1 °C 1018.8 hPa Calm   4.7 km/h 90 % 0.0 mm
22:08 3.4 °C 1.9 °C 1019.9 hPa Calm     90 % 0.0 mm
22:13 3.2 °C 1.8 °C 1019.9 hPa Calm     90 % 0.0 mm
22:18 3.1 °C 1.7 °C 1019.9 hPa Calm     90 % 0.0 mm
22:23 3.1 °C 1.6 °C 1018.8 hPa Calm     90 % 0.0 mm
22:28 2.9 °C 1.4 °C 1018.8 hPa Calm     90 % 0.0 mm
22:33 2.9 °C 1.6 °C 1018.8 hPa Calm     91 % 0.0 mm
22:38 2.8 °C 1.5 °C 1018.8 hPa South 1.8 km/h 3.5 km/h 91 % 0.0 mm
22:43 2.7 °C 1.3 °C 1018.8 hPa Calm   3.5 km/h 91 % 0.0 mm
22:48 2.7 °C 1.3 °C 1018.8 hPa Calm   1.4 km/h 91 % 0.0 mm
22:53 2.6 °C 1.4 °C 1018.8 hPa South 4.0 km/h 5.0 km/h 92 % 0.0 mm
22:58 2.7 °C 1.5 °C 1018.8 hPa South 5.5 km/h 6.1 km/h 92 % 0.0 mm
23:03 2.7 °C 1.7 °C 1018.8 hPa Calm   6.1 km/h 93 % 0.0 mm
23:08 2.7 °C 1.6 °C 1018.8 hPa SSE 4.3 km/h 6.1 km/h 93 % 0.0 mm
23:13 2.6 °C 1.6 °C 1018.8 hPa Calm   6.1 km/h 93 % 0.0 mm
23:18 2.7 °C 1.6 °C 1018.8 hPa South 4.3 km/h 5.5 km/h 93 % 0.0 mm
23:23 2.7 °C 1.9 °C 1018.8 hPa South 4.3 km/h 5.5 km/h 94 % 0.0 mm
23:28 2.7 °C 1.9 °C 1018.8 hPa SSE 3.5 km/h 5.5 km/h 94 % 0.0 mm
23:33 2.7 °C 1.9 °C 1018.8 hPa Calm   5.5 km/h 94 % 0.0 mm
23:38 2.7 °C 1.8 °C 1018.8 hPa SSE 4.7 km/h 4.7 km/h 94 % 0.0 mm
23:43 2.7 °C 1.8 °C 1018.8 hPa South 4.0 km/h 6.1 km/h 94 % 0.0 mm
23:48 2.7 °C 1.8 °C 1018.8 hPa Calm   8.7 km/h 94 % 0.0 mm
23:53 2.7 °C 1.9 °C 1018.8 hPa South 5.8 km/h 8.7 km/h 94 % 0.0 mm
23:58 2.7 °C 2.0 °C 1018.8 hPa South 5.0 km/h 6.4 km/h 95 % 0.0 mm
Le Gheer Warneton
Courtoisie de Weather Underground - 2.25 mb

Mise a jour : 16-12-17 12:06:11
Généré par Cumulus 1.9.4 (1099)